Regional Weather Roundup
Issued by NWS Northern Indiana

Home | Current Version | Previous Version | Graphics & Text | Print | Product List | Glossary On
Versions: 1 2 3 4 5 6 7 8 9 10 11 12 13 14 15 16 17 18 19 20 21 22 23 24 25 26 27 28 29 30 31 32 33 34 35 36 37 38 39 40 41 42 43 44 45 46 47 48 49 50
000
ASUS43 KIWX 250800
RWRIWX

KIWX WEATHER ROUNDUP
NATIONAL WEATHER SERVICE NORTHERN INDIANA
400 AM EDT FRI JUL 25 2014

NOTE: "FAIR" INDICATES FEW OR NO CLOUDS BELOW 12,000 FEET WITH NO
SIGNIFICANT WEATHER AND/OR OBSTRUCTIONS TO VISIBILITY.

* THESE STATIONS ARE NOT UNDER NWS QUALITY CONTROL. THEY ALSO MAY NOT
  REPORT WEATHER SUCH AS PRECIPITATION OR FOG.

INZ001>027-250900-
NORTHERN INDIANA

CITY           SKY/WX    TMP DP  RH WIND       PRES   REMARKS
GARY*          CLEAR     52  51  95 CALM      30.09R
VALPARAISO     CLEAR     50  49  96 CALM      30.09R
KNOX*          CLEAR     49  47  92 CALM      30.08R
SOUTH BEND     CLEAR     54  49  83 CALM      30.09R
GOSHEN         CLEAR     53  51  93 CALM      30.08R
MONTICELLO*    CLEAR     54  53  97 CALM      30.06S
WARSAW*        CLEAR     52  52 100 CALM      30.07S
ANGOLA*        PTCLDY    52  52 100 CALM      30.08R
FORT WAYNE     PTCLDY    56  51  84 CALM      30.08R
PERU/GRISSOM   CLEAR     54  54 100 CALM      30.07R

$$
INZ028>050-250900-
CENTRAL INDIANA

CITY           SKY/WX    TMP DP  RH WIND       PRES   REMARKS
LAFAYETTE      CLEAR     54  53  97 CALM      30.08R FOG
KOKOMO*        CLEAR     54  50  87 CALM      30.08R
MUNCIE*        CLEAR     56  50  80 CALM      30.07S
INDIANAPOLIS   CLEAR     60  54  80 CALM      30.06S

$$
MIZ043>046-050>051-056>058-064>065-071>073-077>080-250900-
SOUTHWEST LOWER MICHIGAN

CITY           SKY/WX    TMP DP  RH WIND       PRES   REMARKS
BATTLE CREEK   CLEAR     54  49  83 CALM      30.07R
BENTON HARBOR  CLEAR     49  47  93 CALM      30.07R
COLDWATER*     CLEAR     54  52  95 CALM      30.08R
HILLSDALE*     PTCLDY    50  50 100 CALM      30.08R
HOLLAND        PTCLDY    52  48  86 SW3       30.07R
GRAND RAPIDS   PTCLDY    54  51  90 S3        30.06R
KALAMAZOO      CLEAR     52  49  89 CALM      30.07R
STURGIS*       CLEAR     52  52 100 CALM      30.08R
THREE RIVERS*  FAIR      53  52  97 CALM      30.08R

$$
OHZ001>008-015>018-024>025-250900-
NORTHWEST OHIO

CITY           SKY/WX    TMP DP  RH WIND       PRES   REMARKS
DEFIANCE       PTCLDY    53  50  89 CALM      30.07R
FINDLAY        CLEAR     53  49  86 CALM      30.06S
TOLEDO EXPRESS PTCLDY    52  51  97 CALM      30.06R
TOLEDO METCALF PTCLDY    57  50  77 CALM      30.07R
LIMA           CLEAR     55  50  83 S3        30.06F

$$
&&


USA.gov is the U.S. government's official web portal to all federal, state and local government web resources and services.